FW4672 Weather Reports


Display with metric or nautical units.
time (UTC)temp
F
wind
direction
speed
MPH
gust
MPH
rain 1hr
in
rain 24hr
in
rain mn
in
humidity
%
barometer
mb
20260902023426 70 330 0.0 0.0 0.00 0.00 0.00 81 1032.5
20260902022429 70 315 0.0 0.0 0.00 0.00 0.00 82 1032.5
20260902021526 71 315 0.0 0.0 0.00 0.00 0.00 82 1032.6
20260902015627 72 337 0.0 0.0 0.00 0.00 0.00 78 1032.5
20260902014627 72 336 0.0 0.0 0.00 0.00 0.00 76 1032.6
20260902013628 73 337 0.0 0.0 0.00 0.00 0.00 74 1032.5
20260902012725 74 180 0.0 0.0 0.00 0.00 0.00 73 1032.4
20260902011727 75 180 0.0 0.0 0.00 0.00 0.00 73 1032.5
20260902010826 75 221 0.0 0.0 0.00 0.00 0.00 72 1032.4
20260902005826 75 201 0.0 0.0 0.00 0.00 0.00 72 1032.3
20260902002027 76 320 0.0 0.0 0.00 0.00 0.00 71 1032.4
20260902001027 76 330 0.0 0.0 0.00 0.00 0.00 71 1032.5
20260901235126 76 319 0.0 0.0 0.00 0.00 0.00 72 1032.5
20260901234127 76 326 0.0 0.0 0.00 0.00 0.00 71 1032.8
20260901233226 76 209 0.0 0.0 0.00 0.00 0.00 70 1032.9
20260901232227 76 192 0.0 0.0 0.00 0.00 0.00 71 1032.9
20260901231325 76 331 0.0 0.0 0.00 0.00 0.00 71 1032.8
20260901230328 76 328 0.0 0.0 0.00 0.00 0.00 71 1032.8
20260901225328 76 287 0.0 0.0 0.00 0.00 0.00 72 1032.9
20260901224328 77 191 0.0 0.0 0.00 0.00 0.00 72 1033.0
20260901223329 77 316 0.0 0.0 0.00 0.00 0.00 72 1033.0
20260901222426 77 325 0.0 0.0 0.00 0.00 0.00 72 1033.0
20260901221427 77 321 0.0 0.0 0.00 0.00 0.00 73 1033.1
20260901220428 77 310 0.0 0.0 0.00 0.00 0.00 73 1033.2
20260901215428 77 319 0.0 0.0 0.00 0.00 0.00 73 1033.2
20260901213526 77 333 0.0 0.0 0.00 0.00 0.00 74 1033.3
20260901211527 77 331 0.0 0.0 0.00 0.00 0.00 75 1033.4
20260901210528 77 185 0.0 0.0 0.00 0.00 0.00 75 1033.5
20260901205546 77 336 0.0 0.0 0.00 0.00 0.00 74 1033.5
20260901204627 77 320 0.0 0.0 0.00 0.00 0.00 73 1033.5
20260901203626 77 322 0.0 0.0 0.00 0.00 0.00 75 1033.5
20260901202627 77 324 0.0 0.0 0.00 0.00 0.00 76 1033.6
20260901201626 77 323 0.0 0.0 0.00 0.00 0.00 76 1033.7
20260901195726 77 336 0.0 0.0 0.00 0.00 0.00 77 1033.9
20260901193826 76 331 0.0 0.0 0.00 0.00 0.00 78 1034.0
20260901192826 76 322 0.0 0.0 0.00 0.00 0.00 78 1034.1
20260901191827 76 336 0.0 0.0 0.00 0.00 0.00 78 1034.1
20260901190825 76 335 0.0 0.0 0.00 0.00 0.00 79 1034.1
20260901185827 75 334 0.0 0.0 0.00 0.00 0.00 79 1034.2
20260901184827 75 334 0.0 0.0 0.00 0.00 0.00 79 1034.2
20260901183828 74 335 0.0 0.0 0.00 0.00 0.00 79 1034.3
20260901182926 74 336 0.0 0.0 0.00 0.00 0.00 79 1034.4
20260901181927 74 323 0.0 0.0 0.00 0.00 0.00 78 1034.4
20260901180927 73 329 0.0 0.0 0.00 0.00 0.00 79 1034.5
20260901175926 73 337 0.0 0.0 0.00 0.00 0.00 78 1034.4
20260901174026 73 334 0.0 0.0 0.00 0.00 0.00 79 1034.3
20260901173027 72 336 0.0 0.0 0.00 0.00 0.00 79 1034.3
20260901171126 72 325 0.0 0.0 0.00 0.00 0.00 80 1034.2
20260901170126 71 323 0.0 0.0 0.00 0.00 0.00 81 1034.2
20260901165129 71 337 0.0 0.0 0.00 0.00 0.00 81 1034.2
20260901164128 71 318 0.0 0.0 0.00 0.00 0.00 81 1034.2
20260901163227 71 321 0.0 0.0 0.00 0.00 0.00 81 1034.3
20260901162227 71 321 0.0 0.0 0.00 0.00 0.00 80 1034.3
20260901161227 71 317 0.0 0.0 0.00 0.00 0.00 82 1034.1
20260901155326 71 205 0.0 0.0 0.00 0.00 0.00 82 1033.9
20260901154326 70 315 0.0 0.0 0.00 0.00 0.00 83 1033.9
20260901153327 70 315 0.0 0.0 0.00 0.00 0.00 83 1033.7
20260901152329 71 336 0.0 0.0 0.00 0.00 0.00 85 1033.6
20260901151327 71 180 0.0 0.0 0.00 0.00 0.00 87 1033.5
20260901150325 70 180 0.0 0.0 0.00 0.00 0.00 89 1033.6
20260901145327 69 180 0.0 0.0 0.00 0.00 0.00 87 1033.5
20260901144425 68 180 0.0 0.0 0.00 0.00 0.00 88 1033.5
20260901143427 67 180 0.0 0.0 0.00 0.00 0.00 89 1033.6
20260901142429 67 180 0.0 0.0 0.00 0.00 0.00 90 1033.5
20260901141527 66 180 0.0 0.0 0.00 0.00 0.00 89 1033.6
20260901140527 65 180 0.0 0.0 0.00 0.00 0.00 90 1033.6
20260901135526 65 180 0.0 0.0 0.00 0.00 0.00 92 1033.4
20260901134527 65 180 0.0 0.0 0.00 0.00 0.00 93 1033.4
20260901133528 65 180 0.0 0.0 0.00 0.00 0.00 92 1033.2
20260901132526 65 180 0.0 0.0 0.00 0.00 0.00 92 1033.1
20260901131527 65 180 0.0 0.0 0.00 0.00 0.00 91 1033.0
20260901130526 65 180 0.0 0.0 0.00 0.00 0.00 91 1033.0
20260901125526 66 180 0.0 0.0 0.00 0.00 0.00 90 1032.9
20260901124529 66 180 0.0 0.0 0.00 0.00 0.00 90 1032.8
20260901123526 66 180 0.0 0.0 0.00 0.00 0.00 90 1032.8
20260901122527 66 360 0.0 0.0 0.00 0.00 0.00 90 1032.8
20260901121526 66 180 0.0 0.0 0.00 0.00 0.00 90 1032.6
20260901120528 66 360 0.0 0.0 0.00 0.00 0.00 90 1032.6
20260901115527 66 180 0.0 0.0 0.00 0.00 0.00 90 1032.6
20260901114527 67 180 0.0 0.0 0.00 0.00 0.00 90 1032.8
20260901113625 67 180 0.0 0.0 0.00 0.00 0.00 90 1032.8
20260901112627 67 180 0.0 0.0 0.00 0.00 0.00 90 1032.9
20260901111726 67 180 0.0 0.0 0.00 0.00 0.00 89 1032.8
20260901110727 67 360 0.0 0.0 0.00 0.00 0.00 90 1032.8
20260901104826 67 180 0.0 0.0 0.00 0.00 0.00 90 1032.8
20260901103826 67 180 0.0 0.0 0.00 0.00 0.00 90 1032.9
20260901102828 67 180 0.0 0.0 0.00 0.00 0.00 90 1032.6
20260901101830 68 180 0.0 0.0 0.00 0.00 0.00 90 1032.8
20260901095928 68 180 0.0 0.0 0.00 0.00 0.00 90 1032.9
20260901094926 67 180 0.0 0.0 0.00 0.00 0.00 91 1033.0
20260901093926 67 180 0.0 0.0 0.00 0.00 0.00 90 1033.0
20260901091926 67 73 0.0 0.0 0.00 0.00 0.00 91 1032.9
20260901091025 67 52 0.0 0.0 0.00 0.00 0.00 90 1032.8
20260901090027 67 67 0.0 0.0 0.00 0.00 0.00 91 1032.8
20260901085027 67 45 0.0 0.0 0.00 0.00 0.00 91 1032.8
20260901084127 67 67 0.0 0.0 0.00 0.00 0.00 92 1032.9
20260901083127 67 67 0.0 0.0 0.00 0.00 0.00 92 1032.9
20260901082227 67 67 0.0 0.0 0.00 0.00 0.00 91 1032.9
20260901081226 67 67 0.0 0.0 0.00 0.00 0.00 91 1032.9
20260901080227 67 67 0.0 0.0 0.00 0.00 0.00 91 1032.9
20260901075227 67 67 0.0 0.0 0.00 0.00 0.00 91 1033.0
20260901074228 67 67 0.0 0.0 0.00 0.00 0.00 90 1032.9
20260901072230 67 67 0.0 0.0 0.00 0.00 0.00 90 1032.9
20260901070325 68 67 0.0 0.0 0.00 0.00 0.00 89 1033.1
20260901065425 68 67 0.0 0.0 0.00 0.00 0.00 89 1033.1
20260901064524 68 67 0.0 0.0 0.00 0.00 0.00 89 1033.1
20260901063624 68 67 0.0 0.0 0.00 0.00 0.00 89 1033.0
20260901062628 69 292 0.0 0.0 0.00 0.00 0.00 90 1033.0
20260901061626 69 292 0.0 0.0 0.00 0.00 0.00 90 1032.9
20260901060725 69 292 0.0 0.0 0.00 0.00 0.00 90 1032.9
20260901054725 69 180 0.0 0.0 0.00 0.00 0.00 90 1033.0
20260901053723 69 180 0.0 0.0 0.00 0.00 0.00 90 1032.9
20260901052726 68 315 0.0 0.0 0.00 0.00 0.00 90 1032.9
20260901051725 68 315 0.0 0.0 0.00 0.00 0.00 90 1032.6
20260901050725 68 315 0.0 0.0 0.00 0.00 0.00 88 1032.8
20260901045726 68 157 0.0 0.0 0.00 0.00 0.00 89 1032.8
20260901044726 68 157 0.0 0.0 0.00 0.00 0.00 89 1032.8
20260901043725 68 157 0.0 0.0 0.00 0.00 0.00 88 1032.8
20260901042723 68 157 0.0 0.0 0.00 0.00 0.00 88 1032.6
20260901041724 69 157 0.0 0.0 0.00 0.00 0.00 88 1032.7
20260901040725 69 157 0.0 0.0 0.00 0.00 0.00 88 1032.6
20260901035724 69 157 0.0 0.0 0.00 0.00 0.00 87 1032.4
20260901034823 69 157 0.0 0.0 0.00 0.00 0.00 87 1032.4
20260901033826 69 157 0.0 0.0 0.00 0.00 0.00 86 1032.2
20260901032826 69 160 0.0 0.0 0.00 0.00 0.00 85 1032.2
20260901031826 69 315 0.0 0.0 0.00 0.00 0.00 85 1032.0
20260901030923 69 315 0.0 0.0 0.00 0.00 0.00 84 1031.8
20260901030023 69 337 0.0 0.0 0.00 0.00 0.00 83 1031.8
20260901025025 70 315 0.0 0.0 0.00 0.00 0.00 83 1031.6